Regional Weather Roundup
Issued by NWS

Home | Current Version | Previous Version | Text Only | Print | Product List | Glossary Off
Versions: 1 2 3 4 5 6 7 8 9 10 11 12 13 14 15 16 17 18 19 20 21 22 23 24 25 26 27 28 29 30 31 32 33 34 35 36 37 38 39 40 41 42 43 44 45 46 47 48 49 50

000
ASUS43 KMKX 281821
RWRWI

WISCONSIN REGIONAL WEATHER ROUNDUP
NATIONAL WEATHER SERVICE MILWAUKEE/SULLIVAN WI
100 PM CDT SAT MAR 28 2015

NOTE: "FAIR" INDICATES FEW OR NO CLOUDS BELOW 12,000 FEET WITH NO
SIGNIFICANT WEATHER AND/OR OBSTRUCTIONS TO VISIBILITY.

WIZ001-002-006>008-014>016-023>028-281900-
NORTHWEST WISCONSIN

CITY           SKY/WX    TMP DP  RH WIND       PRES   REMARKS
SUPERIOR ARPT  SUNNY     41  10  27 SW8G21    30.17F
6HR MIN TEMP:  10; 6HR MAX TEMP:  42;

ASHLAND        SUNNY     40   5  23 S10G16    30.18F WCI  33
6HR MIN TEMP:   8; 6HR MAX TEMP:  42;

HAYWARD        SUNNY     37   9  31 S13       30.19F WCI  29
6HR MIN TEMP:  11; 6HR MAX TEMP:  37;

SIREN          SUNNY     40   7  25 S10G16    30.19F WCI  33
6HR MIN TEMP:  10; 6HR MAX TEMP:  40;

CUMBERLAND     SUNNY     36  10  35 S8        30.20F WCI  29
RICE LAKE      SUNNY     38   9  30 S10       30.23F WCI  30
6HR MIN TEMP:  15; 6HR MAX TEMP:  38;

CHETEK         SUNNY     37  10  32 S8        30.22F WCI  31
6HR MIN TEMP:  13; 6HR MAX TEMP:  38;

LADYSMITH      SUNNY     38   9  30 SW9G17    30.23F WCI  32
6HR MIN TEMP:  15; 6HR MAX TEMP:  38;

EAU CLAIRE     SUNNY     39  10  30 SW10      30.23F WCI  32
6HR MIN TEMP:  14; 6HR MAX TEMP:  39;

MENOMONIE      SUNNY     39   8  27 S9        30.24F WCI  33
6HR MIN TEMP:  17; 6HR MAX TEMP:  39;

NEW RICHMOND   SUNNY     39  10  29 S12       30.22F WCI  32
6HR MIN TEMP:  17; 6HR MAX TEMP:  39;

OSCEOLA        SUNNY     39   8  27 SW13      30.24F WCI  32
6HR MIN TEMP:  16; 6HR MAX TEMP:  40;

$$

WIZ003>005-009-010-017-018-281900-
NORTH CENTRAL WISCONSIN

CITY           SKY/WX    TMP DP  RH WIND       PRES   REMARKS
MANITOWISH WTR SUNNY     35   6  29 SW6       30.17F WCI  30
6HR MIN TEMP:   3; 6HR MAX TEMP:  36;

ARBOR VITAE    SUNNY     37   7  29 SE6       30.18F WCI  32
6HR MIN TEMP:   5; 6HR MAX TEMP:  37;

WOODRUFF       SUNNY     37   7  29 SE6       30.18F WCI  32
6HR MIN TEMP:   5; 6HR MAX TEMP:  37;

RHINELANDER    SUNNY     36   8  31 SW12      30.20F WCI  28
6HR MIN TEMP:   4; 6HR MAX TEMP:  36;

EAGLE RIVER    SUNNY     33   2  26 SW9       30.18F WCI  26
6HR MIN TEMP:  -2; 6HR MAX TEMP:  33; 6HR PCP:  0.04;

LAND O LAKES   SUNNY     36   0  22 SW7       30.18F WCI  30
6HR MIN TEMP:  -7; 6HR MAX TEMP:  36; 6HR PCP:  0.01;

PHILLIPS       SUNNY     36   9  33 W8        30.19F WCI  29
6HR MIN TEMP:   9; 6HR MAX TEMP:  36;

TOMAHAWK       SUNNY     35   6  29 CALM      30.21F
6HR MIN TEMP:   1; 6HR MAX TEMP:  35;

MEDFORD        SUNNY     33  13  42 S7        30.22F WCI  27
6HR MIN TEMP:  13; 6HR MAX TEMP:  33;

MERRILL        SUNNY     35  12  38 W6        30.23F WCI  30
6HR MIN TEMP:   8; 6HR MAX TEMP:  35;

$$

WIZ029-030-035-036-043>047-281900-
CENTRAL WISCONSIN

CITY           SKY/WX    TMP DP  RH WIND       PRES   REMARKS
WAUSAU         SUNNY     35   9  33 SW7       30.22F WCI  29
6HR MIN TEMP:  13; 6HR MAX TEMP:  36;

MOSINEE        SUNNY     34  12  40 S9        30.26S WCI  26
MARSHFIELD     SUNNY     38   8  29 VRB7      30.24F WCI  33
6HR MIN TEMP:  16; 6HR MAX TEMP:  38;

STEVENS POINT  SUNNY     34   8  32 SW10      30.26F WCI  26
6HR MIN TEMP:   8; 6HR MAX TEMP:  34;

WAUPACA        SUNNY     39   8  26 CALM      30.28F
6HR MIN TEMP:  14; 6HR MAX TEMP:  39;

WAUTOMA        SUNNY     38   6  26 SE8       30.29F WCI  32
6HR MIN TEMP:   8; 6HR MAX TEMP:  38;

WISC RAPIDS    SUNNY     38   5  25 SW12      30.28F WCI  30
6HR MIN TEMP:  10; 6HR MAX TEMP:  38;

CAMP DOUGLAS   SUNNY     39   9  28 VRB5      30.27F
$$

WIZ011>013-019>022-031-037>040-048>050-281900-
NORTHEAST WISCONSIN

CITY           SKY/WX    TMP DP  RH WIND       PRES   REMARKS
ANTIGO         SUNNY     32  13  45 SW9       30.22F WCI  25
6HR MIN TEMP:  11; 6HR MAX TEMP:  33;

SHAWANO        SUNNY     37  12  35 SW5       30.28F WCI  34
6HR MIN TEMP:  13; 6HR MAX TEMP:  37;

OCONTO         SUNNY     33  16  49 SE10      30.29F WCI  24
6HR MIN TEMP:   8; 6HR MAX TEMP:  33;

STURGEON BAY   SUNNY     30  14  51 W3        30.31F
6HR MIN TEMP:  12; 6HR MAX TEMP:  30;

GREEN BAY      SUNNY     34  21  59 S6        30.30F WCI  29
6HR MIN TEMP:  17; 6HR MAX TEMP:  34;

MANITOWOC      SUNNY     32  21  64 S9        30.31F WCI  24
6HR MIN TEMP:  16; 6HR MAX TEMP:  35;

APPLETON       SUNNY     34  12  40 SW6       30.29F WCI  29
CLINTONVILLE   SUNNY     34  10  37 SW6       30.28F WCI  29
OSHKOSH        SUNNY     35  12  38 VRB7      30.29F WCI  29
6HR MIN TEMP:  15; 6HR MAX TEMP:  35;

$$

WIZ032>034-041-042-053>061-281900-
SOUTHWEST WISCONSIN

CITY           SKY/WX    TMP DP  RH WIND       PRES   REMARKS
LA CROSSE      SUNNY     39  11  31 S8        30.28F WCI  33
6HR MIN TEMP:  20; 6HR MAX TEMP:  40;

SPARTA         SUNNY     39   8  27 SE6       30.28F WCI  35
6HR MIN TEMP:   9; 6HR MAX TEMP:  39;

VIROQUA        SUNNY     34  14  43 S8G16     30.26F WCI  27
6HR MIN TEMP:  18; 6HR MAX TEMP:  34;

BOSCOBEL       SUNNY     36  14  40 SW8       30.32S WCI  30
6HR MIN TEMP:  13; 6HR MAX TEMP:  36;

PRAIRIE DU CHI SUNNY     36   8  31 SE8       30.30F WCI  29
6HR MIN TEMP:  15; 6HR MAX TEMP:  36;

PLATTEVILLE    SUNNY     35  15  42 SE6       30.30S WCI  30
6HR MIN TEMP:  19; 6HR MAX TEMP:  35;

$$

WIZ056-057-062-063-064-067-068-281900-
SOUTH CENTRAL WISCONSIN

CITY           SKY/WX    TMP DP  RH WIND       PRES   REMARKS
REEDSBURG      SUNNY     35  11  35 S8        30.29S WCI  29
6HR MIN TEMP:  15; 6HR MAX TEMP:  35;

BARABOO/DELLS  SUNNY     36   7  30 S9        30.28F WCI  29
6HR MIN TEMP:  13; 6HR MAX TEMP:  36;

LONE ROCK      SUNNY     36  12  37 W7        30.31F WCI  30
6HR MIN TEMP:  14; 6HR MAX TEMP:  36;

MINERAL POINT  SUNNY     34  16  47 S6        30.30S WCI  29
MADISON        MOSUNNY   35  11  36 S8        30.30F WCI  29
6HR MIN TEMP:  16; 6HR MAX TEMP:  36;

MIDDLETON      SUNNY     37   6  27 S3        30.30F
6HR MIN TEMP:  17; 6HR MAX TEMP:  37;

WATERTOWN      SUNNY     35  11  37 SW5       30.31S WCI  31
6HR MIN TEMP:  13; 6HR MAX TEMP:  36;

MONROE         SUNNY     34  16  47 S5        30.30S WCI  30
JANESVILLE     SUNNY     36   9  32 CALM      30.32F
$$

WIZ051-052-058>065-066-070>072-281900-
SOUTHEAST WISCONSIN

CITY           SKY/WX    TMP DP  RH WIND       PRES   REMARKS
MILWAUKEE      MOSUNNY   32  16  51 E9        30.33F WCI  24
6HR MIN TEMP:  18; 6HR MAX TEMP:  33;

WAUKESHA       MOSUNNY   32   9  37 SE5       30.32F WCI  27
MILWAUKEE/TIMM SUNNY     34   9  35 CALM      30.32F
RACINE         SUNNY     31  16  54 SE9       30.35F WCI  23
6HR MIN TEMP:  17; 6HR MAX TEMP:  32;

BURLINGTON     SUNNY     33  11  40 W3        30.31F
6HR MIN TEMP:  11; 6HR MAX TEMP:  34;

KENOSHA        SUNNY     33  17  51 E13       30.33F WCI  24
6HR MIN TEMP:  16; 6HR MAX TEMP:  34;

FOND DU LAC    SUNNY     36  11  35 VRB7      30.30F WCI  30
6HR MIN TEMP:  12; 6HR MAX TEMP:  36; 6HR PCP: TRACE;

SHEBOYGAN      SUNNY     33  13  43 VRB3      30.31F
6HR MIN TEMP:  16; 6HR MAX TEMP:  34;

WEST BEND      SUNNY     34   7  32 CALM      30.30F
JUNEAU         SUNNY     33  10  37 S5        30.31F WCI  29
6HR MIN TEMP:  14; 6HR MAX TEMP:  34;

$$

LSZ147-162-281900-
LAKE SUPERIOR

STATION/POSITION TIME  TEMP    WIND        PRES    WAVE
                       AIR SEA DIR/SP/G            HT/PER
                 (UTC) (F)     (DEG/KT/KT) (MB)    (FT/S)
DEVILS ISLAND    1800   33      60/  1/  3 1023.4F
PORT WING        1700   29     340/  5/  6 1023.4
SAXON HARBOR     1700   30        CALM     1023.4
$$

LMZ867-665-643>646-281900-
LAKE MICHIGAN

STATION/POSITION TIME  TEMP    WIND        PRES    WAVE
                       AIR SEA DIR/SP/G            HT/PER



USA.gov is the U.S. government's official web portal to all federal, state and local government web resources and services.